UAE99J OMDB-OPLA

Flight info

Callsign UAE99J
Flight time 2h 50m
Altitude 37000
Route DAVMO M318 KHM M561 ASVIB G665 PG G214 VEREN
Aircraft A320/M-SDE3FGHIRWY/LB1

Departure

Time 2026-05-09 08:18
Airport Dubai International Airport (OMDB)

Arrival

Time 2026-05-09 11:09
Airport Allama Iqbal International Airport (OPLA)
Time Latitude Longitude Altitude Speed Heading
2026-05-09 07:47 25.24939 55.35841 22 ft 0 kts 31°
2026-05-09 07:59 25.24937 55.35839 22 ft 2 kts 31°
2026-05-09 07:59 25.24922 55.35830 22 ft 2 kts 31°
2026-05-09 08:00 25.24908 55.35820 22 ft 2 kts 31°
2026-05-09 08:00 25.24894 55.35810 24 ft 2 kts 32°
2026-05-09 08:00 25.24880 55.35801 22 ft 2 kts 32°
2026-05-09 08:00 25.24866 55.35791 22 ft 2 kts
2026-05-09 08:01 25.24850 55.35795 23 ft 2 kts 318°
2026-05-09 08:01 25.24839 55.35808 25 ft 2 kts 307°
2026-05-09 08:01 25.24829 55.35823 22 ft 2 kts 302°
2026-05-09 08:01 25.24821 55.35837 22 ft 1 kts 299°
2026-05-09 08:02 25.24819 55.35841 24 ft 0 kts 298°
2026-05-09 08:04 25.24820 55.35840 22 ft 1 kts 298°
2026-05-09 08:04 25.24828 55.35824 23 ft 4 kts 298°
2026-05-09 08:05 25.24845 55.35791 23 ft 6 kts 300°
2026-05-09 08:05 25.24873 55.35744 23 ft 9 kts 307°
2026-05-09 08:05 25.24914 55.35685 24 ft 11 kts 306°
2026-05-09 08:05 25.24960 55.35609 22 ft 13 kts 303°
2026-05-09 08:06 25.25011 55.35518 23 ft 15 kts 301°
2026-05-09 08:06 25.25068 55.35415 21 ft 17 kts 301°
2026-05-09 08:06 25.25132 55.35303 23 ft 18 kts 305°
2026-05-09 08:06 25.25210 55.35187 21 ft 19 kts 303°
2026-05-09 08:07 25.25281 55.35059 21 ft 20 kts 301°
2026-05-09 08:07 25.25350 55.34935 21 ft 14 kts 304°
2026-05-09 08:07 25.25418 55.34893 21 ft 9 kts 342°
2026-05-09 08:07 25.25472 55.34907 21 ft 7 kts 25°
2026-05-09 08:08 25.25512 55.34933 21 ft 6 kts 31°
2026-05-09 08:08 25.25543 55.34954 21 ft 5 kts 31°
2026-05-09 08:08 25.25566 55.34970 22 ft 3 kts 31°
2026-05-09 08:08 25.25581 55.34980 21 ft 2 kts 31°
2026-05-09 08:09 25.25590 55.34986 21 ft 1 kts 32°
2026-05-09 08:09 25.25600 55.34993 21 ft 3 kts 32°
2026-05-09 08:09 25.25634 55.35016 21 ft 8 kts 32°
2026-05-09 08:09 25.25663 55.35036 21 ft 3 kts 32°
2026-05-09 08:10 25.25692 55.35056 21 ft 7 kts 31°
2026-05-09 08:10 25.25743 55.35101 23 ft 11 kts 69°
2026-05-09 08:10 25.25742 55.35199 21 ft 15 kts 54°
2026-05-09 08:10 25.25839 55.35268 22 ft 19 kts 31°
2026-05-09 08:11 25.25938 55.35332 22 ft 9 kts 31°
2026-05-09 08:11 25.25983 55.35400 21 ft 13 kts 68°
2026-05-09 08:11 25.25998 55.35515 21 ft 17 kts 101°
2026-05-09 08:11 25.25930 55.35643 21 ft 22 kts 122°
2026-05-09 08:12 25.25743 55.35982 21 ft 30 kts 121°
2026-05-09 08:12 25.25626 55.36192 22 ft 34 kts 121°
2026-05-09 08:12 25.25496 55.36427 22 ft 38 kts 121°
2026-05-09 08:13 25.25353 55.36684 24 ft 41 kts 122°
2026-05-09 08:13 25.25201 55.36959 23 ft 42 kts 121°
2026-05-09 08:13 25.25049 55.37234 29 ft 39 kts 121°
2026-05-09 08:13 25.24911 55.37484 32 ft 38 kts 121°
2026-05-09 08:14 25.24791 55.37699 34 ft 28 kts 121°
2026-05-09 08:14 25.24697 55.37867 40 ft 19 kts 121°
2026-05-09 08:14 25.24675 55.37908 41 ft 0 kts 114°
2026-05-09 08:14 25.24675 55.37909 41 ft 1 kts 114°
2026-05-09 08:15 25.24672 55.37925 40 ft 3 kts 96°
2026-05-09 08:15 25.24676 55.37956 42 ft 0 kts 39°
2026-05-09 08:15 25.24681 55.37960 40 ft 2 kts 37°
2026-05-09 08:15 25.24714 55.37985 40 ft 9 kts 34°
2026-05-09 08:16 25.24786 55.38032 42 ft 14 kts 29°
2026-05-09 08:16 25.24821 55.38015 41 ft 7 kts 301°
2026-05-09 08:16 25.24846 55.37967 40 ft 0 kts 301°
2026-05-09 08:16 25.24850 55.37959 40 ft 2 kts 301°
2026-05-09 08:17 25.24854 55.37953 40 ft 0 kts 301°
2026-05-09 08:17 25.24858 55.37946 40 ft 6 kts 301°
2026-05-09 08:18 25.24975 55.37733 35 ft 67 kts 301°
2026-05-09 08:18 25.25334 55.37085 23 ft 128 kts 301°
2026-05-09 08:18 25.25879 55.36100 67 ft 167 kts 301°
2026-05-09 08:18 25.26462 55.35050 822 ft 159 kts 303°
2026-05-09 08:19 25.27055 55.33982 1394 ft 164 kts 300°
2026-05-09 08:19 25.27655 55.32901 2005 ft 169 kts 301°
2026-05-09 08:19 25.28278 55.31774 2621 ft 174 kts 301°
2026-05-09 08:19 25.28937 55.30609 3188 ft 180 kts 307°
2026-05-09 08:20 25.29922 55.29729 3597 ft 191 kts 334°
2026-05-09 08:20 25.31267 55.29478 3968 ft 207 kts 359°
2026-05-09 08:20 25.32742 55.29555 3727 ft 209 kts 358°
2026-05-09 08:20 25.34158 55.29598 4029 ft 209 kts 356°
2026-05-09 08:21 25.35621 55.29629 4024 ft 221 kts 356°
2026-05-09 08:21 25.37221 55.29655 4012 ft 236 kts 357°
2026-05-09 08:21 25.38873 55.29692 4011 ft 238 kts 358°
2026-05-09 08:21 25.40538 55.30059 4352 ft 254 kts 17°
2026-05-09 08:22 25.42208 55.30803 4642 ft 276 kts 19°
2026-05-09 08:22 25.44010 55.31632 5234 ft 283 kts 19°
2026-05-09 08:22 25.45841 55.32489 5934 ft 287 kts 19°
2026-05-09 08:22 25.47692 55.33361 6611 ft 291 kts 19°
2026-05-09 08:23 25.49572 55.34246 7274 ft 296 kts 20°
2026-05-09 08:23 25.51479 55.35139 7906 ft 301 kts 20°
2026-05-09 08:23 25.53429 55.36049 8568 ft 305 kts 21°
2026-05-09 08:23 25.55404 55.36970 9236 ft 310 kts 21°
2026-05-09 08:24 25.57397 55.37930 9872 ft 315 kts 27°
2026-05-09 08:24 25.59262 55.39195 10147 ft 334 kts 34°
2026-05-09 08:24 25.61235 55.40717 10335 ft 354 kts 36°
2026-05-09 08:24 25.63258 55.42306 10867 ft 360 kts 36°
2026-05-09 08:25 25.65313 55.43930 11505 ft 364 kts 36°
2026-05-09 08:25 25.67323 55.45649 12148 ft 366 kts 44°
2026-05-09 08:25 25.69164 55.47597 12815 ft 368 kts 45°
2026-05-09 08:25 25.71025 55.49557 13487 ft 370 kts 45°
2026-05-09 08:26 25.72901 55.51526 14082 ft 373 kts 45°
2026-05-09 08:26 25.74794 55.53508 14617 ft 376 kts 45°
2026-05-09 08:26 25.76707 55.55512 15157 ft 380 kts 46°
2026-05-09 08:26 25.78639 55.57535 15685 ft 384 kts 46°
2026-05-09 08:27 25.80594 55.59581 16213 ft 388 kts 46°
2026-05-09 08:27 25.82561 55.61642 16736 ft 392 kts 46°
2026-05-09 08:27 25.84552 55.63734 17252 ft 395 kts 46°
2026-05-09 08:27 25.86707 55.65675 17748 ft 402 kts 36°
2026-05-09 08:28 25.89079 55.67353 18228 ft 407 kts 34°
2026-05-09 08:28 25.91478 55.69040 18657 ft 410 kts 34°
2026-05-09 08:28 25.93894 55.70743 19089 ft 413 kts 34°
2026-05-09 08:28 25.96332 55.72465 19514 ft 417 kts 34°
2026-05-09 08:29 25.98790 55.74204 19933 ft 420 kts 33°
2026-05-09 08:29 26.01225 55.75926 20345 ft 423 kts 33°
2026-05-09 08:29 26.03808 55.77627 20762 ft 427 kts 26°
2026-05-09 08:29 26.06588 55.78816 21158 ft 430 kts 14°
2026-05-09 08:30 26.09488 55.79413 21568 ft 432 kts
2026-05-09 08:30 26.12535 55.79413 21959 ft 432 kts 353°
2026-05-09 08:30 26.15504 55.79159 22377 ft 434 kts 353°
2026-05-09 08:30 26.18521 55.78975 22782 ft 438 kts 358°
2026-05-09 08:31 26.21575 55.79288 23176 ft 443 kts
2026-05-09 08:31 26.24625 55.79941 23528 ft 446 kts
2026-05-09 08:31 26.27677 55.80588 23859 ft 448 kts
2026-05-09 08:31 26.30745 55.81232 24188 ft 450 kts
2026-05-09 08:32 26.33835 55.81875 24516 ft 452 kts
2026-05-09 08:32 26.36935 55.82515 24846 ft 454 kts
2026-05-09 08:32 26.42115 55.83588 25378 ft 458 kts
2026-05-09 08:33 26.45255 55.84246 25698 ft 460 kts
2026-05-09 08:33 26.48411 55.84906 26021 ft 462 kts
2026-05-09 08:33 26.51577 55.85566 26324 ft 464 kts
2026-05-09 08:33 26.54755 55.86229 26641 ft 466 kts
2026-05-09 08:34 26.57946 55.86898 26941 ft 468 kts
2026-05-09 08:34 26.61145 55.87571 27242 ft 470 kts
2026-05-09 08:34 26.64371 55.88252 27545 ft 472 kts
2026-05-09 08:34 26.67599 55.88933 27835 ft 474 kts
2026-05-09 08:35 26.70847 55.89623 28115 ft 476 kts
2026-05-09 08:35 26.74039 55.90693 28409 ft 483 kts 19°
2026-05-09 08:35 26.77071 55.92348 28686 ft 488 kts 29°
2026-05-09 08:35 26.79847 55.94564 28945 ft 493 kts 39°
2026-05-09 08:36 26.82360 55.97185 29207 ft 496 kts 43°
2026-05-09 08:36 26.84865 55.99854 29471 ft 498 kts 42°
2026-05-09 08:36 26.87373 56.02517 29732 ft 501 kts 42°
2026-05-09 08:36 26.89923 56.05225 29966 ft 503 kts 42°
2026-05-09 08:37 26.92464 56.07926 30192 ft 504 kts 42°
2026-05-09 08:37 26.94977 56.10598 30413 ft 506 kts 42°
2026-05-09 08:37 26.97488 56.13369 30627 ft 508 kts 47°
2026-05-09 08:37 26.99619 56.16541 30838 ft 511 kts 58°
2026-05-09 08:38 27.01223 56.20077 31123 ft 509 kts 69°
2026-05-09 08:38 27.02275 56.23861 31434 ft 507 kts 79°
2026-05-09 08:38 27.02747 56.27756 31731 ft 503 kts 90°
2026-05-09 08:38 27.02646 56.31661 32032 ft 499 kts 97°
2026-05-09 08:39 27.02361 56.35544 32322 ft 499 kts 97°
2026-05-09 08:39 27.02077 56.39423 32632 ft 499 kts 97°
2026-05-09 08:39 27.01796 56.43295 32922 ft 498 kts 97°
2026-05-09 08:39 27.01514 56.47176 33243 ft 498 kts 97°
2026-05-09 08:40 27.01235 56.51021 33557 ft 497 kts 97°
2026-05-09 08:40 27.00953 56.54888 33862 ft 497 kts 97°
2026-05-09 08:40 27.00668 56.58740 34134 ft 496 kts 97°
2026-05-09 08:40 27.00381 56.62594 34408 ft 495 kts 97°
2026-05-09 08:41 27.00094 56.66434 34677 ft 494 kts 97°
2026-05-09 08:41 26.99812 56.70222 34929 ft 493 kts 97°
2026-05-09 08:41 26.99523 56.74058 35181 ft 492 kts 97°
2026-05-09 08:41 26.99236 56.77886 35424 ft 492 kts 97°
2026-05-09 08:42 26.98950 56.81694 35663 ft 491 kts 97°
2026-05-09 08:42 26.98663 56.85508 35897 ft 490 kts 98°
2026-05-09 08:42 26.98396 56.89320 36074 ft 492 kts 96°
2026-05-09 08:42 26.98157 56.93126 36313 ft 490 kts 97°
2026-05-09 08:43 26.97869 56.96979 36551 ft 489 kts 98°
2026-05-09 08:43 26.97559 57.00719 36758 ft 488 kts 98°
2026-05-09 08:43 26.97235 57.04508 36817 ft 487 kts 98°
2026-05-09 08:44 26.96608 57.12068 36825 ft 486 kts 98°
2026-05-09 08:44 26.96027 57.19611 36825 ft 485 kts 98°
2026-05-09 08:45 26.95455 57.27144 36824 ft 485 kts 98°
2026-05-09 08:45 26.94860 57.34683 36841 ft 485 kts 98°
2026-05-09 08:46 26.94254 57.42169 36853 ft 485 kts 98°
2026-05-09 08:46 26.93643 57.49680 36860 ft 485 kts 98°
2026-05-09 08:47 26.93037 57.57212 36869 ft 485 kts 98°
2026-05-09 08:47 26.92434 57.64750 36886 ft 485 kts 98°
2026-05-09 08:48 26.91818 57.72274 36887 ft 484 kts 98°
2026-05-09 08:48 26.91195 57.79786 36888 ft 484 kts 98°
2026-05-09 08:49 26.90572 57.87294 36886 ft 484 kts 98°
2026-05-09 08:49 26.89950 57.94804 36877 ft 484 kts 98°
2026-05-09 08:50 26.89324 58.02300 36873 ft 483 kts 98°
2026-05-09 08:50 26.89022 58.09831 36855 ft 485 kts 92°
2026-05-09 08:51 26.89069 58.17342 36846 ft 485 kts 92°
2026-05-09 08:51 26.89102 58.24905 36838 ft 485 kts 92°
2026-05-09 08:52 26.89132 58.32444 36825 ft 484 kts 92°
2026-05-09 08:52 26.89162 58.39989 36813 ft 484 kts 92°
2026-05-09 08:53 26.89199 58.47521 36810 ft 484 kts 92°
2026-05-09 08:53 26.89225 58.55061 36809 ft 484 kts 92°
2026-05-09 08:54 26.89240 58.62556 36800 ft 484 kts 92°
2026-05-09 08:54 26.89254 58.70092 36803 ft 484 kts 92°
2026-05-09 08:55 26.89260 58.77635 36795 ft 484 kts 92°
2026-05-09 08:55 26.89275 58.85179 36797 ft 484 kts 92°
2026-05-09 08:56 26.89292 58.92708 36792 ft 484 kts 92°
2026-05-09 08:56 26.89283 59.00205 36787 ft 484 kts 92°
2026-05-09 08:57 26.89270 59.07753 36789 ft 484 kts 92°
2026-05-09 08:57 26.89259 59.15291 36791 ft 484 kts 92°
2026-05-09 08:58 26.89240 59.22847 36790 ft 485 kts 92°
2026-05-09 08:58 26.89227 59.30395 36791 ft 485 kts 92°
2026-05-09 08:59 26.89212 59.37951 36791 ft 485 kts 92°
2026-05-09 08:59 26.89226 59.45467 36784 ft 485 kts 90°
2026-05-09 09:00 26.89467 59.53013 36787 ft 486 kts 89°
2026-05-09 09:00 26.89792 59.60564 36792 ft 486 kts 89°
2026-05-09 09:01 26.90072 59.68130 36793 ft 486 kts 90°
2026-05-09 09:01 26.90300 59.75689 36801 ft 486 kts 90°
2026-05-09 09:02 26.90517 59.83257 36801 ft 486 kts 90°
2026-05-09 09:02 26.90745 59.90811 36806 ft 485 kts 90°
2026-05-09 09:03 26.90969 59.98367 36802 ft 485 kts 90°
2026-05-09 09:03 26.91189 60.05867 36806 ft 484 kts 90°
2026-05-09 09:04 26.91408 60.13413 36813 ft 484 kts 89°
2026-05-09 09:04 26.91624 60.20933 36816 ft 483 kts 89°
2026-05-09 09:05 26.91830 60.28450 36813 ft 482 kts 90°
2026-05-09 09:05 26.92029 60.35940 36818 ft 481 kts 89°
2026-05-09 09:06 26.92228 60.43426 36818 ft 480 kts 89°
2026-05-09 09:06 26.92430 60.50914 36821 ft 480 kts 89°
2026-05-09 09:07 26.92623 60.58335 36835 ft 480 kts 89°
2026-05-09 09:07 26.92805 60.65810 36847 ft 480 kts 89°
2026-05-09 09:08 26.92971 60.73287 36856 ft 479 kts 90°
2026-05-09 09:08 26.93110 60.80753 36858 ft 479 kts 90°
2026-05-09 09:09 26.93237 60.88214 36851 ft 478 kts 90°
2026-05-09 09:09 26.93375 60.95673 36847 ft 479 kts 90°
2026-05-09 09:10 26.93515 61.03080 36853 ft 478 kts 90°
2026-05-09 09:10 26.93642 61.10527 36855 ft 478 kts 90°
2026-05-09 09:11 26.93763 61.17978 36856 ft 478 kts 90°
2026-05-09 09:11 26.93881 61.25428 36860 ft 478 kts 90°
2026-05-09 09:12 26.93996 61.32876 36861 ft 478 kts 90°
2026-05-09 09:12 26.94109 61.40333 36860 ft 478 kts 90°
2026-05-09 09:13 26.94221 61.47778 36864 ft 478 kts 90°
2026-05-09 09:13 26.94330 61.55215 36861 ft 478 kts 90°
2026-05-09 09:14 26.94433 61.62603 36859 ft 478 kts 90°
2026-05-09 09:14 26.94520 61.70055 36856 ft 477 kts 90°
2026-05-09 09:15 26.94613 61.77497 36851 ft 477 kts 90°
2026-05-09 09:15 26.94705 61.84940 36849 ft 477 kts 90°
2026-05-09 09:15 26.94844 61.88655 36262 ft 486 kts 79°
2026-05-09 09:16 26.95671 61.92393 35230 ft 497 kts 76°
2026-05-09 09:16 26.95885 61.99853 35858 ft 469 kts 98°
2026-05-09 09:16 26.95474 62.03437 36514 ft 459 kts 99°
2026-05-09 09:17 26.95100 62.06933 36756 ft 459 kts 97°
2026-05-09 09:17 26.94860 62.10516 36837 ft 464 kts 93°
2026-05-09 09:17 26.94829 62.17823 36839 ft 474 kts 89°
2026-05-09 09:18 26.95065 62.25250 36839 ft 476 kts 89°
2026-05-09 09:18 26.95231 62.32676 36839 ft 477 kts 90°
2026-05-09 09:19 26.95278 62.40100 36840 ft 476 kts 90°
2026-05-09 09:19 26.95300 62.47531 36838 ft 476 kts 90°
2026-05-09 09:20 26.95343 62.54953 36841 ft 476 kts 90°
2026-05-09 09:20 26.95392 62.62323 36839 ft 476 kts 90°
2026-05-09 09:21 26.95440 62.69729 36841 ft 476 kts 90°
2026-05-09 09:21 26.95489 62.77149 36842 ft 476 kts 90°
2026-05-09 09:22 26.95527 62.84563 36841 ft 476 kts 90°
2026-05-09 09:22 26.95560 62.91976 36838 ft 475 kts 90°
2026-05-09 09:23 26.95591 62.99392 36837 ft 476 kts 90°
2026-05-09 09:23 26.95612 63.06815 36833 ft 476 kts 90°
2026-05-09 09:24 26.95628 63.14234 36834 ft 476 kts 90°
2026-05-09 09:24 26.95649 63.21598 36825 ft 475 kts 90°
2026-05-09 09:25 26.95669 63.29009 36825 ft 475 kts 90°
2026-05-09 09:25 26.95674 63.36407 36821 ft 475 kts 90°
2026-05-09 09:26 26.95646 63.43835 36816 ft 475 kts 91°
2026-05-09 09:26 26.95612 63.51246 36813 ft 475 kts 90°
2026-05-09 09:27 26.95583 63.58598 36810 ft 475 kts 90°
2026-05-09 09:27 26.95553 63.65999 36812 ft 475 kts 90°
2026-05-09 09:28 26.95520 63.73402 36811 ft 475 kts 90°
2026-05-09 09:28 26.95487 63.80839 36833 ft 478 kts 90°
2026-05-09 09:29 26.95457 63.87043 36836 ft 477 kts 90°
2026-05-09 09:29 26.95855 63.95648 36838 ft 475 kts 74°
2026-05-09 09:30 26.97327 64.01617 36834 ft 474 kts 73°
2026-05-09 09:30 26.99098 64.08739 36833 ft 474 kts 73°
2026-05-09 09:31 27.01013 64.15786 36284 ft 480 kts 68°
2026-05-09 09:31 27.02077 64.19286 36517 ft 465 kts 72°
2026-05-09 09:32 27.03676 64.26335 36823 ft 470 kts 76°
2026-05-09 09:32 27.05190 64.33500 36819 ft 473 kts 75°
2026-05-09 09:33 27.06871 64.40615 36824 ft 474 kts 73°
2026-05-09 09:33 27.08650 64.47715 36824 ft 474 kts 73°
2026-05-09 09:34 27.10429 64.54847 36823 ft 474 kts 73°
2026-05-09 09:34 27.12169 64.61974 36827 ft 474 kts 73°
2026-05-09 09:36 27.19071 64.90567 36840 ft 475 kts 73°
2026-05-09 09:37 27.20789 64.97716 36841 ft 475 kts 73°
2026-05-09 09:37 27.22511 65.04894 36843 ft 475 kts 73°
2026-05-09 09:38 27.24230 65.12064 36844 ft 475 kts 73°
2026-05-09 09:38 27.25910 65.19094 36850 ft 475 kts 73°
2026-05-09 09:39 27.27623 65.26270 36846 ft 475 kts 73°
2026-05-09 09:39 27.29328 65.33431 36850 ft 474 kts 73°
2026-05-09 09:40 27.31026 65.40611 36844 ft 474 kts 74°
2026-05-09 09:40 27.32715 65.47777 36843 ft 475 kts 74°
2026-05-09 09:41 27.34409 65.54957 36842 ft 475 kts 73°
2026-05-09 09:41 27.36093 65.62089 36844 ft 475 kts 73°
2026-05-09 09:42 27.37790 65.69275 36765 ft 476 kts 71°
2026-05-09 09:42 27.39560 65.76424 36841 ft 475 kts 74°
2026-05-09 09:43 27.41178 65.83641 36836 ft 475 kts 75°
2026-05-09 09:43 27.42793 65.90846 36830 ft 475 kts 74°
2026-05-09 09:44 27.44452 65.97992 36832 ft 475 kts 73°
2026-05-09 09:44 27.46133 66.05180 36828 ft 475 kts 73°
2026-05-09 09:45 27.47812 66.12390 36827 ft 475 kts 73°
2026-05-09 09:45 27.49479 66.19594 36827 ft 475 kts 74°
2026-05-09 09:46 27.51131 66.26814 36832 ft 476 kts 73°
2026-05-09 09:46 27.52778 66.33983 36839 ft 475 kts 73°
2026-05-09 09:47 27.54423 66.41189 36837 ft 475 kts 73°
2026-05-09 09:47 27.56070 66.48398 36837 ft 475 kts 73°
2026-05-09 09:48 27.57711 66.55611 36839 ft 475 kts 74°
2026-05-09 09:48 27.59344 66.62833 36833 ft 475 kts 73°
2026-05-09 09:49 27.60983 66.70055 36834 ft 475 kts 73°
2026-05-09 09:49 27.62616 66.77282 36835 ft 475 kts 73°
2026-05-09 09:50 27.64242 66.84496 36837 ft 475 kts 73°
2026-05-09 09:50 27.65870 66.91726 36844 ft 475 kts 73°
2026-05-09 09:51 27.67479 66.98904 36839 ft 475 kts 73°
2026-05-09 09:51 27.69095 67.06137 36830 ft 475 kts 73°
2026-05-09 09:52 27.70709 67.13366 36828 ft 475 kts 73°
2026-05-09 09:52 27.72312 67.20557 36804 ft 475 kts 73°
2026-05-09 09:53 27.73918 67.27839 36793 ft 475 kts 73°
2026-05-09 09:53 27.75518 67.35080 36788 ft 476 kts 73°
2026-05-09 09:54 27.77129 67.42331 36772 ft 476 kts 73°
2026-05-09 09:54 27.78721 67.49579 36747 ft 476 kts 73°
2026-05-09 09:55 27.80314 67.56842 36737 ft 476 kts 73°
2026-05-09 09:55 27.81896 67.64033 36728 ft 475 kts 73°
2026-05-09 09:56 27.83481 67.71298 36723 ft 475 kts 73°
2026-05-09 09:56 27.85045 67.78549 36712 ft 475 kts 73°
2026-05-09 09:57 27.86620 67.85796 36711 ft 475 kts 73°
2026-05-09 09:57 27.88199 67.93054 36713 ft 476 kts 73°
2026-05-09 09:58 27.89770 68.00329 36722 ft 476 kts 73°
2026-05-09 09:58 27.91331 68.07607 36725 ft 476 kts 73°
2026-05-09 09:59 27.92890 68.14880 36721 ft 476 kts 73°
2026-05-09 09:59 27.94445 68.22095 36722 ft 476 kts 73°
2026-05-09 10:00 27.96007 68.29364 36723 ft 476 kts 73°
2026-05-09 10:00 27.97556 68.36642 36722 ft 476 kts 73°
2026-05-09 10:01 27.99096 68.43913 36719 ft 475 kts 73°
2026-05-09 10:01 28.00638 68.51204 36722 ft 476 kts 73°
2026-05-09 10:02 28.02178 68.58485 36726 ft 476 kts 73°
2026-05-09 10:02 28.03710 68.65757 36722 ft 476 kts 73°
2026-05-09 10:03 28.05250 68.73058 36721 ft 477 kts 73°
2026-05-09 10:03 28.06774 68.80329 36726 ft 477 kts 73°
2026-05-09 10:04 28.08292 68.87634 36739 ft 476 kts 73°
2026-05-09 10:04 28.09811 68.94927 36732 ft 476 kts 72°
2026-05-09 10:05 28.11329 69.02230 36732 ft 476 kts 72°
2026-05-09 10:05 28.12839 69.09522 36734 ft 476 kts 72°
2026-05-09 10:06 28.14351 69.16833 36736 ft 476 kts 72°
2026-05-09 10:06 28.15846 69.24097 36736 ft 476 kts 72°
2026-05-09 10:07 28.17348 69.31413 36734 ft 476 kts 72°
2026-05-09 10:07 28.18848 69.38726 36737 ft 476 kts 72°
2026-05-09 10:08 28.20341 69.46026 36733 ft 476 kts 72°
2026-05-09 10:08 28.21831 69.53344 36735 ft 476 kts 72°
2026-05-09 10:09 28.23319 69.60657 36731 ft 476 kts 72°
2026-05-09 10:09 28.24800 69.67962 36737 ft 476 kts 72°
2026-05-09 10:10 28.26272 69.75297 36716 ft 476 kts 72°
2026-05-09 10:10 28.27736 69.82564 36719 ft 476 kts 72°
2026-05-09 10:11 28.29206 69.89889 36718 ft 476 kts 72°
2026-05-09 10:11 28.30672 69.97215 36721 ft 476 kts 72°
2026-05-09 10:12 28.32134 70.04552 36724 ft 477 kts 71°
2026-05-09 10:12 28.33599 70.11903 36730 ft 477 kts 71°
2026-05-09 10:13 28.35054 70.19239 36736 ft 478 kts 71°
2026-05-09 10:13 28.37047 70.26321 36735 ft 464 kts 56°
2026-05-09 10:14 28.40652 70.32203 36733 ft 447 kts 39°
2026-05-09 10:14 28.44864 70.37323 36732 ft 447 kts 39°
2026-05-09 10:15 28.49096 70.42509 36736 ft 448 kts 39°
2026-05-09 10:15 28.53324 70.47715 36740 ft 448 kts 39°
2026-05-09 10:16 28.57553 70.52915 36748 ft 448 kts 39°
2026-05-09 10:16 28.61788 70.58112 36748 ft 448 kts 39°
2026-05-09 10:17 28.66020 70.63318 36750 ft 447 kts 39°
2026-05-09 10:17 28.70216 70.68491 36749 ft 447 kts 39°
2026-05-09 10:18 28.74429 70.73688 36750 ft 446 kts 39°
2026-05-09 10:18 28.78630 70.78880 36746 ft 446 kts 39°
2026-05-09 10:19 28.82837 70.84086 36745 ft 445 kts 39°
2026-05-09 10:19 28.87029 70.89281 36742 ft 445 kts 39°
2026-05-09 10:20 28.91231 70.94485 36748 ft 445 kts 39°
2026-05-09 10:20 28.95416 70.99675 36747 ft 445 kts 39°
2026-05-09 10:21 28.99577 71.04853 36751 ft 445 kts 39°
2026-05-09 10:21 29.03748 71.10052 36755 ft 444 kts 39°
2026-05-09 10:22 29.07922 71.15262 36756 ft 444 kts 39°
2026-05-09 10:22 29.12081 71.20449 36758 ft 443 kts 39°
2026-05-09 10:23 29.16245 71.25649 36762 ft 443 kts 39°
2026-05-09 10:23 29.20401 71.30853 36754 ft 443 kts 39°
2026-05-09 10:24 29.24564 71.36070 36758 ft 443 kts 39°
2026-05-09 10:24 29.28714 71.41271 36761 ft 442 kts 39°
2026-05-09 10:25 29.32820 71.46477 36767 ft 443 kts 39°
2026-05-09 10:25 29.36899 71.51742 36770 ft 443 kts 39°
2026-05-09 10:26 29.40978 71.57028 36779 ft 442 kts 39°
2026-05-09 10:26 29.45063 71.62306 36776 ft 442 kts 39°
2026-05-09 10:27 29.49141 71.67573 36777 ft 441 kts 39°
2026-05-09 10:27 29.53205 71.72826 36775 ft 440 kts 39°
2026-05-09 10:28 29.57267 71.78088 36768 ft 440 kts 39°
2026-05-09 10:28 29.61319 71.83346 36769 ft 439 kts 39°
2026-05-09 10:29 29.65341 71.88560 36767 ft 439 kts 39°
2026-05-09 10:29 29.69387 71.93813 36770 ft 438 kts 39°
2026-05-09 10:30 29.73428 71.99067 36776 ft 438 kts 39°
2026-05-09 10:30 29.77460 72.04328 36770 ft 438 kts 39°
2026-05-09 10:31 29.81480 72.09599 36772 ft 437 kts 39°
2026-05-09 10:31 29.85495 72.14853 36774 ft 437 kts 39°
2026-05-09 10:32 29.88836 72.19217 36777 ft 437 kts 39°
2026-05-09 10:32 29.92851 72.24471 36772 ft 436 kts 39°
2026-05-09 10:33 29.96860 72.29725 36768 ft 436 kts 40°
2026-05-09 10:33 30.00860 72.34985 36772 ft 436 kts 40°
2026-05-09 10:34 30.04830 72.40210 36776 ft 436 kts 40°
2026-05-09 10:34 30.10826 72.48102 36785 ft 436 kts 40°
2026-05-09 10:35 30.14817 72.53376 36789 ft 436 kts 40°
2026-05-09 10:35 30.18802 72.58652 36782 ft 436 kts 40°
2026-05-09 10:36 30.22796 72.63969 36646 ft 441 kts 40°
2026-05-09 10:36 30.24798 72.66665 36401 ft 442 kts 41°
2026-05-09 10:36 30.26782 72.69360 36157 ft 440 kts 41°
2026-05-09 10:37 30.28737 72.72028 35921 ft 439 kts 41°
2026-05-09 10:37 30.30705 72.74713 35682 ft 437 kts 41°
2026-05-09 10:37 30.32669 72.77383 35447 ft 434 kts 41°
2026-05-09 10:37 30.34630 72.80039 35215 ft 432 kts 41°
2026-05-09 10:38 30.36575 72.82674 34983 ft 431 kts 41°
2026-05-09 10:38 30.38523 72.85317 34757 ft 429 kts 41°
2026-05-09 10:38 30.40452 72.87938 34527 ft 427 kts 41°
2026-05-09 10:38 30.42371 72.90545 34297 ft 425 kts 41°
2026-05-09 10:39 30.44284 72.93143 34086 ft 423 kts 41°
2026-05-09 10:39 30.46184 72.95729 33869 ft 421 kts 41°
2026-05-09 10:39 30.48057 72.98283 33618 ft 419 kts 42°
2026-05-09 10:39 30.49939 73.00851 33369 ft 417 kts 42°
2026-05-09 10:40 30.51815 73.03409 33115 ft 415 kts 42°
2026-05-09 10:40 30.53680 73.05953 32854 ft 413 kts 42°
2026-05-09 10:40 30.55543 73.08500 32595 ft 411 kts 42°
2026-05-09 10:40 30.57388 73.11020 32360 ft 409 kts 42°
2026-05-09 10:41 30.59225 73.13531 32114 ft 407 kts 43°
2026-05-09 10:41 30.61052 73.16036 31872 ft 406 kts 43°
2026-05-09 10:41 30.62868 73.18528 31627 ft 404 kts 43°
2026-05-09 10:41 30.64684 73.21017 31394 ft 402 kts 43°
2026-05-09 10:42 30.66491 73.23489 31152 ft 400 kts 43°
2026-05-09 10:42 30.68287 73.25948 30912 ft 398 kts 43°
2026-05-09 10:42 30.70076 73.28383 30663 ft 394 kts 43°
2026-05-09 10:42 30.71857 73.30787 30218 ft 392 kts 43°
2026-05-09 10:43 30.73641 73.33183 29719 ft 390 kts 44°
2026-05-09 10:43 30.75387 73.35522 29231 ft 386 kts 44°
2026-05-09 10:43 30.77135 73.37862 28780 ft 382 kts 44°
2026-05-09 10:43 30.78868 73.40190 28338 ft 378 kts 44°
2026-05-09 10:44 30.80572 73.42491 27900 ft 375 kts 44°
2026-05-09 10:44 30.82266 73.44783 27451 ft 371 kts 45°
2026-05-09 10:44 30.83941 73.47049 27009 ft 368 kts 45°
2026-05-09 10:44 30.85609 73.49306 26546 ft 366 kts 45°
2026-05-09 10:45 30.87265 73.51543 26093 ft 364 kts 45°
2026-05-09 10:46 30.93842 73.60431 24151 ft 362 kts 45°
2026-05-09 10:46 30.95481 73.62650 23652 ft 362 kts 46°
2026-05-09 10:46 30.97130 73.64883 23105 ft 363 kts 46°
2026-05-09 10:46 30.98770 73.67110 22575 ft 362 kts 46°
2026-05-09 10:47 31.00400 73.69327 22078 ft 360 kts 46°
2026-05-09 10:47 31.02028 73.71545 21591 ft 359 kts 46°
2026-05-09 10:47 31.03646 73.73751 21105 ft 358 kts 46°
2026-05-09 10:47 31.05264 73.75957 20618 ft 357 kts 46°
2026-05-09 10:48 31.06873 73.78150 20137 ft 357 kts 46°
2026-05-09 10:48 31.08490 73.80349 19657 ft 356 kts 46°
2026-05-09 10:48 31.10080 73.82513 19183 ft 356 kts 46°
2026-05-09 10:48 31.11691 73.84707 18727 ft 356 kts 46°
2026-05-09 10:49 31.13293 73.86889 18275 ft 355 kts 46°
2026-05-09 10:49 31.14885 73.89063 17957 ft 349 kts 46°
2026-05-09 10:49 31.16461 73.91220 17483 ft 348 kts 46°
2026-05-09 10:49 31.18028 73.93364 17011 ft 347 kts 46°
2026-05-09 10:50 31.19592 73.95499 16556 ft 345 kts 46°
2026-05-09 10:50 31.21146 73.97620 16132 ft 343 kts 46°
2026-05-09 10:50 31.22694 73.99736 15723 ft 342 kts 46°
2026-05-09 10:50 31.24257 74.01839 15317 ft 339 kts 42°
2026-05-09 10:51 31.26083 74.03508 14930 ft 332 kts 27°
2026-05-09 10:51 31.28134 74.04743 14524 ft 330 kts 24°
2026-05-09 10:51 31.30172 74.05945 14131 ft 329 kts 24°
2026-05-09 10:51 31.31419 74.06681 13902 ft 329 kts 24°
2026-05-09 10:52 31.32732 74.07456 13661 ft 328 kts 24°
2026-05-09 10:52 31.34760 74.08653 13242 ft 326 kts 24°
2026-05-09 10:52 31.36784 74.09852 12838 ft 325 kts 24°
2026-05-09 10:53 31.38799 74.11051 12437 ft 323 kts 25°
2026-05-09 10:53 31.40772 74.12229 12047 ft 321 kts 25°
2026-05-09 10:53 31.42750 74.13409 11653 ft 319 kts 25°
2026-05-09 10:53 31.44720 74.14585 11269 ft 317 kts 25°
2026-05-09 10:54 31.46683 74.15754 10891 ft 315 kts 25°
2026-05-09 10:54 31.48643 74.16919 10505 ft 313 kts 25°
2026-05-09 10:54 31.50584 74.18070 10124 ft 312 kts 25°
2026-05-09 10:54 31.52506 74.19213 9679 ft 307 kts 25°
2026-05-09 10:55 31.54372 74.20324 9231 ft 294 kts 25°
2026-05-09 10:55 31.56169 74.21397 8646 ft 289 kts 26°
2026-05-09 10:55 31.57954 74.22463 7985 ft 287 kts 26°
2026-05-09 10:55 31.59728 74.23523 7407 ft 282 kts 26°
2026-05-09 10:56 31.61423 74.24537 7124 ft 267 kts 26°
2026-05-09 10:56 31.63050 74.25511 6716 ft 259 kts 26°
2026-05-09 10:56 31.64632 74.26460 6581 ft 257 kts 26°
2026-05-09 10:56 31.66192 74.27399 6287 ft 246 kts 27°
2026-05-09 10:57 31.67687 74.28299 5969 ft 237 kts 27°
2026-05-09 10:57 31.69155 74.29182 5653 ft 238 kts 27°
2026-05-09 10:57 31.70613 74.30059 5333 ft 239 kts 27°
2026-05-09 10:57 31.72092 74.30950 5011 ft 239 kts 27°
2026-05-09 10:58 31.73567 74.31852 4704 ft 239 kts 31°
2026-05-09 10:58 31.74683 74.33266 4450 ft 234 kts 69°
2026-05-09 10:58 31.74762 74.35093 4240 ft 230 kts 109°
2026-05-09 10:58 31.73819 74.36540 4024 ft 225 kts 146°
2026-05-09 10:59 31.72490 74.37449 3899 ft 218 kts 152°
2026-05-09 10:59 31.71148 74.38230 3722 ft 214 kts 154°
2026-05-09 10:59 31.69816 74.38988 3516 ft 212 kts 154°
2026-05-09 10:59 31.68619 74.39903 3437 ft 198 kts 127°
2026-05-09 11:00 31.68275 74.41337 3393 ft 180 kts 77°
2026-05-09 11:00 31.68704 74.42660 3333 ft 167 kts 71°
2026-05-09 11:00 31.68659 74.43944 3259 ft 159 kts 118°
2026-05-09 11:00 31.67841 74.44747 3229 ft 157 kts 166°
2026-05-09 11:01 31.66766 74.44675 3187 ft 158 kts 201°
2026-05-09 11:01 31.65808 74.44055 3151 ft 157 kts 216°
2026-05-09 11:01 31.64970 74.43286 3120 ft 152 kts 219°
2026-05-09 11:01 31.64157 74.42493 3072 ft 151 kts 220°
2026-05-09 11:02 31.63356 74.41705 3055 ft 151 kts 220°
2026-05-09 11:02 31.62502 74.41001 2956 ft 150 kts 207°
2026-05-09 11:02 31.61502 74.40688 2885 ft 150 kts 188°
2026-05-09 11:02 31.60454 74.40559 2740 ft 154 kts 185°
2026-05-09 11:03 31.59370 74.40494 2379 ft 159 kts 180°
2026-05-09 11:03 31.58255 74.40527 2018 ft 161 kts 176°
2026-05-09 11:03 31.57132 74.40608 1668 ft 163 kts 177°
2026-05-09 11:03 31.56005 74.40656 1397 ft 159 kts 178°
2026-05-09 11:04 31.54899 74.40594 1204 ft 159 kts 185°
2026-05-09 11:04 31.53799 74.40443 978 ft 159 kts 182°
2026-05-09 11:04 31.52706 74.40408 809 ft 147 kts 161°
2026-05-09 11:04 31.51863 74.40887 1558 ft 134 kts 167°
2026-05-09 11:05 31.59743 74.23532 7410 ft 282 kts 26°
2026-05-09 11:05 31.68693 74.42624 3337 ft 167 kts 71°
2026-05-09 11:05 31.61157 74.40637 2856 ft 150 kts 186°
2026-05-09 11:05 31.60482 74.40485 2418 ft 129 kts 186°
2026-05-09 11:06 31.63554 74.41900 3061 ft 150 kts 220°
2026-05-09 11:06 31.62736 74.41159 2970 ft 150 kts 212°
2026-05-09 11:06 31.58618 74.40504 2139 ft 160 kts 176°
2026-05-09 11:06 31.57489 74.40588 1783 ft 162 kts 175°
2026-05-09 11:07 31.63072 74.41429 3001 ft 152 kts 217°
2026-05-09 11:07 31.62066 74.40879 3257 ft 174 kts 185°
2026-05-09 11:07 31.60705 74.40832 3261 ft 219 kts 185°
2026-05-09 11:07 31.59120 74.40664 3016 ft 221 kts 184°
2026-05-09 11:08 31.57687 74.40569 2493 ft 198 kts 183°
2026-05-09 11:08 31.56360 74.40514 2014 ft 184 kts 179°
2026-05-09 11:08 31.55102 74.40539 1510 ft 179 kts 180°
2026-05-09 11:08 31.53884 74.40496 988 ft 174 kts 182°
2026-05-09 11:09 31.52771 74.40469 720 ft 128 kts 180°
2026-05-09 11:09 31.52117 74.40460 720 ft 64 kts 181°
2026-05-09 11:09 31.51795 74.40449 720 ft 30 kts 181°
2026-05-09 11:09 31.51654 74.40447 719 ft 19 kts 180°
2026-05-09 11:10 31.51645 74.40447 720 ft 20 kts 180°
2026-05-09 11:11 31.51564 74.40447 719 ft 24 kts 180°
2026-05-09 11:11 31.51369 74.40442 720 ft 31 kts 182°
2026-05-09 11:11 31.51133 74.40425 717 ft 37 kts 184°
2026-05-09 11:11 31.50954 74.40418 717 ft 12 kts 182°
2026-05-09 11:12 31.50926 74.40416 719 ft 3 kts 182°
2026-05-09 11:12 31.50748 74.40392 717 ft 34 kts 205°
2026-05-09 11:12 31.50675 74.40367 717 ft 0 kts 142°
2026-05-09 11:12 25.24854 55.37953 39 ft 0 kts 301°
2026-05-09 11:13 25.24859 55.37943 40 ft 8 kts 301°